WTB74P TNCM-MDSD

Flight info

Callsign WTB74P
Flight time 1h 3m
Altitude 34000
Route GOUDA L577 ANTEX/N0350F180 L577 GOSUB
Aircraft B38M/M-SDE1FGHILORVWXY/HB1

Departure

Time 2026-05-04 18:21
Airport Princess Juliana International Airport (TNCM)

Arrival

Time 2026-05-04 19:25
Airport Las Américas International Airport (MDSD)
Time Latitude Longitude Altitude Speed Heading
2026-05-04 17:29 18.04262 -63.11550 27 ft 0 kts 320°
2026-05-04 18:17 18.04263 -63.11551 23 ft 0 kts 320°
2026-05-04 18:17 18.04240 -63.11533 28 ft 11 kts 324°
2026-05-04 18:18 18.04217 -63.11509 27 ft 0 kts 268°
2026-05-04 18:18 18.04219 -63.11497 23 ft 0 kts 232°
2026-05-04 18:19 18.04126 -63.11601 23 ft 19 kts 230°
2026-05-04 18:19 18.04051 -63.11765 25 ft 31 kts 263°
2026-05-04 18:19 18.04038 -63.11861 27 ft 3 kts 258°
2026-05-04 18:20 18.04027 -63.11898 23 ft 9 kts 244°
2026-05-04 18:20 18.03968 -63.11897 24 ft 12 kts 118°
2026-05-04 18:20 18.03963 -63.11811 24 ft 13 kts 81°
2026-05-04 18:20 18.03975 -63.11722 25 ft 10 kts 82°
2026-05-04 18:21 18.03990 -63.11611 24 ft 39 kts 81°
2026-05-04 18:21 18.04077 -63.11011 24 ft 124 kts 81°
2026-05-04 18:21 18.04255 -63.09889 166 ft 180 kts 81°
2026-05-04 18:21 18.04239 -63.08527 1051 ft 185 kts 112°
2026-05-04 18:22 18.03455 -63.07533 2422 ft 186 kts 146°
2026-05-04 18:22 18.02197 -63.07065 3474 ft 197 kts 163°
2026-05-04 18:22 18.00825 -63.06788 4391 ft 205 kts 165°
2026-05-04 18:22 17.99424 -63.06505 5356 ft 207 kts 165°
2026-05-04 18:23 17.97978 -63.06235 6229 ft 216 kts 173°
2026-05-04 18:23 17.96463 -63.06657 6814 ft 243 kts 211°
2026-05-04 18:23 17.95372 -63.08105 7351 ft 271 kts 247°
2026-05-04 18:23 17.95118 -63.10111 8001 ft 287 kts 271°
2026-05-04 18:24 17.95137 -63.12246 8845 ft 298 kts 267°
2026-05-04 18:24 17.95085 -63.14429 9825 ft 300 kts 267°
2026-05-04 18:24 17.95026 -63.16621 10792 ft 301 kts 267°
2026-05-04 18:24 17.94961 -63.18840 11598 ft 307 kts 266°
2026-05-04 18:25 17.94886 -63.21117 12250 ft 320 kts 266°
2026-05-04 18:25 17.94797 -63.23507 12774 ft 335 kts 266°
2026-05-04 18:25 17.94708 -63.25987 13483 ft 340 kts 267°
2026-05-04 18:25 17.94628 -63.28480 14242 ft 344 kts 267°
2026-05-04 18:26 17.94543 -63.31022 14794 ft 350 kts 267°
2026-05-04 18:26 17.94463 -63.33537 14969 ft 347 kts 268°
2026-05-04 18:26 17.94384 -63.36069 15046 ft 346 kts 268°
2026-05-04 18:26 17.94301 -63.38602 15460 ft 348 kts 268°
2026-05-04 18:27 17.94222 -63.41148 16207 ft 349 kts 268°
2026-05-04 18:27 17.94139 -63.43697 16965 ft 349 kts 268°
2026-05-04 18:27 17.94060 -63.46238 17740 ft 349 kts 269°
2026-05-04 18:27 17.93978 -63.48787 18493 ft 348 kts 269°
2026-05-04 18:28 17.93897 -63.51358 18994 ft 354 kts 269°
2026-05-04 18:28 17.93813 -63.53932 19494 ft 357 kts 269°
2026-05-04 18:28 17.93729 -63.56569 19944 ft 364 kts 268°
2026-05-04 18:28 17.93642 -63.59252 20415 ft 368 kts 268°
2026-05-04 18:29 17.93555 -63.61956 20887 ft 374 kts 269°
2026-05-04 18:29 17.93465 -63.64711 21331 ft 379 kts 268°
2026-05-04 18:29 17.93507 -63.67493 21730 ft 385 kts 279°
2026-05-04 18:29 17.94063 -63.70251 22211 ft 388 kts 282°
2026-05-04 18:30 17.95139 -63.75888 23048 ft 398 kts 282°
2026-05-04 18:30 17.95679 -63.78760 23401 ft 406 kts 281°
2026-05-04 18:30 17.96236 -63.81718 23503 ft 419 kts 282°
2026-05-04 18:31 17.96799 -63.84718 23804 ft 424 kts 282°
2026-05-04 18:31 17.97370 -63.87760 24245 ft 425 kts 281°
2026-05-04 18:31 17.97943 -63.90812 24682 ft 426 kts 282°
2026-05-04 18:31 17.98515 -63.93871 25108 ft 427 kts 282°
2026-05-04 18:32 17.99088 -63.96931 25543 ft 427 kts 282°
2026-05-04 18:32 17.99663 -64.00002 25955 ft 429 kts 282°
2026-05-04 18:32 18.00237 -64.03081 26362 ft 430 kts 282°
2026-05-04 18:32 18.00814 -64.06170 26816 ft 431 kts 283°
2026-05-04 18:33 18.01389 -64.09259 27330 ft 429 kts 282°
2026-05-04 18:33 18.01956 -64.12299 27844 ft 427 kts 283°
2026-05-04 18:33 18.02525 -64.15354 28376 ft 425 kts 282°
2026-05-04 18:33 18.03091 -64.18397 28908 ft 423 kts 282°
2026-05-04 18:34 18.03655 -64.21435 29429 ft 421 kts 283°
2026-05-04 18:34 18.04213 -64.24441 29968 ft 419 kts 282°
2026-05-04 18:34 18.04769 -64.27444 30433 ft 417 kts 283°
2026-05-04 18:34 18.05322 -64.30423 30886 ft 414 kts 283°
2026-05-04 18:35 18.05872 -64.33400 31287 ft 413 kts 282°
2026-05-04 18:35 18.06414 -64.36324 31690 ft 412 kts 282°
2026-05-04 18:35 18.06957 -64.39272 32114 ft 410 kts 282°
2026-05-04 18:35 18.07500 -64.42208 32543 ft 407 kts 282°
2026-05-04 18:36 18.08038 -64.45125 32953 ft 405 kts 282°
2026-05-04 18:36 18.08572 -64.48024 33344 ft 404 kts 282°
2026-05-04 18:36 18.09106 -64.50922 33701 ft 403 kts 282°
2026-05-04 18:36 18.09639 -64.53815 34005 ft 403 kts 282°
2026-05-04 18:37 18.10171 -64.56712 34060 ft 402 kts 281°
2026-05-04 18:37 18.11221 -64.62429 34052 ft 400 kts 281°
2026-05-04 18:38 18.12275 -64.68178 34050 ft 400 kts 281°
2026-05-04 18:38 18.13346 -64.74034 34052 ft 413 kts 281°
2026-05-04 18:39 18.14449 -64.80074 34043 ft 427 kts 281°
2026-05-04 18:39 18.15574 -64.86246 34035 ft 436 kts 281°
2026-05-04 18:40 18.16714 -64.92510 34039 ft 436 kts 281°
2026-05-04 18:40 18.17767 -64.98785 34037 ft 435 kts 277°
2026-05-04 18:41 18.18460 -65.05133 34042 ft 437 kts 277°
2026-05-04 18:41 18.19141 -65.11445 34050 ft 438 kts 277°
2026-05-04 18:42 18.19822 -65.17800 34038 ft 436 kts 277°
2026-05-04 18:42 18.20501 -65.24148 34052 ft 437 kts 277°
2026-05-04 18:43 18.21180 -65.30519 34053 ft 437 kts 277°
2026-05-04 18:43 18.21851 -65.36839 34048 ft 437 kts 276°
2026-05-04 18:44 18.22525 -65.43201 34051 ft 438 kts 276°
2026-05-04 18:44 18.23198 -65.49576 34057 ft 438 kts 276°
2026-05-04 18:45 18.23864 -65.55905 34054 ft 437 kts 276°
2026-05-04 18:45 18.24532 -65.62269 34054 ft 438 kts 276°
2026-05-04 18:46 18.25195 -65.68615 34053 ft 434 kts 276°
2026-05-04 18:46 18.25848 -65.74873 34045 ft 432 kts 276°
2026-05-04 18:47 18.26504 -65.81190 34048 ft 436 kts 276°
2026-05-04 18:47 18.27160 -65.87524 34046 ft 433 kts 276°
2026-05-04 18:48 18.27804 -65.93769 34040 ft 432 kts 276°
2026-05-04 18:48 18.28454 -66.00077 34029 ft 435 kts 276°
2026-05-04 18:49 18.29103 -66.06410 34038 ft 433 kts 276°
2026-05-04 18:49 18.29747 -66.12706 34041 ft 433 kts 276°
2026-05-04 18:50 18.30388 -66.18997 34048 ft 436 kts 276°
2026-05-04 18:50 18.31030 -66.25327 34036 ft 433 kts 275°
2026-05-04 18:51 18.31669 -66.31645 34049 ft 435 kts 275°
2026-05-04 18:51 18.32307 -66.37968 34044 ft 436 kts 275°
2026-05-04 18:52 18.32944 -66.44297 34027 ft 433 kts 275°
2026-05-04 18:52 18.33579 -66.50632 34027 ft 435 kts 275°
2026-05-04 18:53 18.34105 -66.55908 34048 ft 436 kts 275°
2026-05-04 18:53 18.34734 -66.62219 34033 ft 435 kts 275°
2026-05-04 18:54 18.35367 -66.68590 34036 ft 437 kts 275°
2026-05-04 18:54 18.35998 -66.74971 34034 ft 437 kts 275°
2026-05-04 18:55 18.36622 -66.81301 34029 ft 436 kts 275°
2026-05-04 18:55 18.37559 -66.90862 34042 ft 438 kts 275°
2026-05-04 18:56 18.38182 -66.97231 34039 ft 436 kts 275°
2026-05-04 18:56 18.38798 -67.03554 34031 ft 437 kts 275°
2026-05-04 18:57 18.39415 -67.09917 34030 ft 437 kts 275°
2026-05-04 18:57 18.40031 -67.16285 34027 ft 436 kts 275°
2026-05-04 18:58 18.40645 -67.22653 34032 ft 437 kts 274°
2026-05-04 18:58 18.41253 -67.28988 34031 ft 437 kts 274°
2026-05-04 18:59 18.41859 -67.35312 33303 ft 433 kts 275°
2026-05-04 18:59 18.42162 -67.38484 32563 ft 435 kts 275°
2026-05-04 18:59 18.42466 -67.41671 31882 ft 437 kts 275°
2026-05-04 19:00 18.42769 -67.44864 31210 ft 438 kts 276°
2026-05-04 19:00 18.43069 -67.48024 30557 ft 439 kts 276°
2026-05-04 19:00 18.43373 -67.51229 29865 ft 440 kts 276°
2026-05-04 19:00 18.43675 -67.54438 29052 ft 441 kts 276°
2026-05-04 19:01 18.43979 -67.57669 28207 ft 444 kts 276°
2026-05-04 19:01 18.44285 -67.60915 27371 ft 447 kts 276°
2026-05-04 19:01 18.44591 -67.64176 26540 ft 450 kts 275°
2026-05-04 19:01 18.44898 -67.67444 26188 ft 446 kts 275°
2026-05-04 19:02 18.45205 -67.70712 26019 ft 451 kts 275°
2026-05-04 19:02 18.45515 -67.74014 26010 ft 457 kts 275°
2026-05-04 19:02 18.45829 -67.77377 26007 ft 465 kts 275°
2026-05-04 19:02 18.46148 -67.80795 26009 ft 472 kts 275°
2026-05-04 19:03 18.46466 -67.84209 26018 ft 474 kts 275°
2026-05-04 19:03 18.46788 -67.87669 26022 ft 474 kts 275°
2026-05-04 19:03 18.47109 -67.91132 26021 ft 475 kts 275°
2026-05-04 19:03 18.47430 -67.94599 26030 ft 476 kts 275°
2026-05-04 19:04 18.47750 -67.98065 26027 ft 475 kts 275°
2026-05-04 19:04 18.47897 -68.01531 26025 ft 473 kts 268°
2026-05-04 19:04 18.47813 -68.05001 26033 ft 474 kts 268°
2026-05-04 19:04 18.47743 -68.08428 26026 ft 475 kts 268°
2026-05-04 19:05 18.47670 -68.11908 26027 ft 474 kts 268°
2026-05-04 19:05 18.47597 -68.15378 26019 ft 473 kts 268°
2026-05-04 19:05 18.47524 -68.18850 26023 ft 474 kts 269°
2026-05-04 19:05 18.47448 -68.22326 26027 ft 474 kts 268°
2026-05-04 19:06 18.47373 -68.25795 26025 ft 472 kts 268°
2026-05-04 19:06 18.47298 -68.29243 26022 ft 471 kts 268°
2026-05-04 19:06 18.47222 -68.32700 26021 ft 472 kts 268°
2026-05-04 19:06 18.47145 -68.36158 26024 ft 473 kts 268°
2026-05-04 19:07 18.47067 -68.39619 26021 ft 472 kts 268°
2026-05-04 19:07 18.46990 -68.43073 26018 ft 471 kts 268°
2026-05-04 19:07 18.46911 -68.46526 26030 ft 472 kts 268°
2026-05-04 19:07 18.46831 -68.49988 26034 ft 473 kts 268°
2026-05-04 19:08 18.46751 -68.53451 26033 ft 471 kts 268°
2026-05-04 19:08 18.46672 -68.56887 26031 ft 470 kts 268°
2026-05-04 19:08 18.46592 -68.60294 26035 ft 471 kts 268°
2026-05-04 19:08 18.46510 -68.63747 26040 ft 471 kts 268°
2026-05-04 19:09 18.46427 -68.67203 26043 ft 470 kts 268°
2026-05-04 19:09 18.46345 -68.70647 26041 ft 470 kts 268°
2026-05-04 19:09 18.46262 -68.74094 26041 ft 471 kts 268°
2026-05-04 19:09 18.46178 -68.77548 26048 ft 471 kts 268°
2026-05-04 19:10 18.46070 -68.80997 26046 ft 470 kts 267°
2026-05-04 19:10 18.45951 -68.84391 26047 ft 470 kts 268°
2026-05-04 19:10 18.45833 -68.87805 25732 ft 463 kts 267°
2026-05-04 19:10 18.45714 -68.91200 24739 ft 460 kts 267°
2026-05-04 19:11 18.45596 -68.94579 23148 ft 464 kts 266°
2026-05-04 19:11 18.45477 -68.97996 21431 ft 468 kts 267°
2026-05-04 19:11 18.45358 -69.01397 20005 ft 462 kts 268°
2026-05-04 19:11 18.45239 -69.04766 18639 ft 457 kts 268°
2026-05-04 19:12 18.45120 -69.08080 17225 ft 449 kts 268°
2026-05-04 19:12 18.44887 -69.14548 14663 ft 435 kts 268°
2026-05-04 19:12 18.44777 -69.17601 14560 ft 401 kts 267°
2026-05-04 19:13 18.44673 -69.20457 14245 ft 379 kts 267°
2026-05-04 19:13 18.44576 -69.23142 13881 ft 363 kts 267°
2026-05-04 19:13 18.44482 -69.25746 13449 ft 349 kts 268°
2026-05-04 19:13 18.44435 -69.28259 13006 ft 337 kts 268°
2026-05-04 19:14 18.44396 -69.30690 12565 ft 327 kts 268°
2026-05-04 19:14 18.44355 -69.33058 12135 ft 320 kts 267°
2026-05-04 19:14 18.44314 -69.35373 11698 ft 312 kts 267°
2026-05-04 19:14 18.44274 -69.37627 11368 ft 302 kts 267°
2026-05-04 19:15 18.44235 -69.39808 11057 ft 294 kts 266°
2026-05-04 19:15 18.44204 -69.41946 10716 ft 289 kts 270°
2026-05-04 19:15 18.44663 -69.44002 10211 ft 292 kts 297°
2026-05-04 19:15 18.45959 -69.45584 9685 ft 291 kts 323°
2026-05-04 19:16 18.47581 -69.46868 9112 ft 292 kts 321°
2026-05-04 19:16 18.49176 -69.48196 8590 ft 291 kts 322°
2026-05-04 19:16 18.50763 -69.49526 8098 ft 290 kts 322°
2026-05-04 19:16 18.52334 -69.50846 7652 ft 287 kts 322°
2026-05-04 19:17 18.53886 -69.52153 7183 ft 284 kts 322°
2026-05-04 19:17 18.55408 -69.53437 6905 ft 275 kts 322°
2026-05-04 19:17 18.56877 -69.54677 6674 ft 265 kts 322°
2026-05-04 19:17 18.58301 -69.55879 6322 ft 261 kts 322°
2026-05-04 19:18 18.59718 -69.57076 5890 ft 259 kts 322°
2026-05-04 19:18 18.61125 -69.58263 5461 ft 259 kts 322°
2026-05-04 19:18 18.62506 -69.59429 5065 ft 258 kts 322°
2026-05-04 19:18 18.63907 -69.60614 4631 ft 257 kts 321°
2026-05-04 19:19 18.65142 -69.61948 4197 ft 252 kts 296°
2026-05-04 19:19 18.65582 -69.63677 3829 ft 242 kts 263°
2026-05-04 19:19 18.65133 -69.65324 3467 ft 231 kts 234°
2026-05-04 19:19 18.64261 -69.66749 3099 ft 227 kts 233°
2026-05-04 19:20 18.63426 -69.68095 2848 ft 217 kts 232°
2026-05-04 19:20 18.62600 -69.69401 2434 ft 209 kts 233°
2026-05-04 19:20 18.61810 -69.70634 2081 ft 195 kts 231°
2026-05-04 19:20 18.61032 -69.71724 2076 ft 183 kts 218°
2026-05-04 19:21 18.59933 -69.72321 1965 ft 174 kts 190°
2026-05-04 19:21 18.58809 -69.72317 1903 ft 155 kts 167°
2026-05-04 19:21 18.57795 -69.71987 1829 ft 155 kts 161°
2026-05-04 19:21 18.56786 -69.71619 1787 ft 152 kts 161°
2026-05-04 19:22 18.55794 -69.71247 1768 ft 150 kts 161°
2026-05-04 19:22 18.54825 -69.70887 1717 ft 148 kts 161°
2026-05-04 19:22 18.53846 -69.70524 1678 ft 149 kts 161°
2026-05-04 19:22 18.52862 -69.70155 1547 ft 150 kts 161°
2026-05-04 19:23 18.51875 -69.69802 1436 ft 149 kts 165°
2026-05-04 19:23 18.50863 -69.69577 1294 ft 148 kts 168°
2026-05-04 19:23 18.49858 -69.69315 1131 ft 149 kts 167°
2026-05-04 19:23 18.48857 -69.69009 974 ft 150 kts 163°
2026-05-04 19:24 18.47864 -69.68691 791 ft 147 kts 162°
2026-05-04 19:24 18.46916 -69.68339 665 ft 146 kts 161°
2026-05-04 19:24 18.45966 -69.68004 421 ft 139 kts 160°
2026-05-04 19:24 18.45037 -69.67648 260 ft 141 kts 162°
2026-05-04 19:25 18.44144 -69.67323 72 ft 128 kts 162°
2026-05-04 19:25 18.43424 -69.67065 67 ft 91 kts 161°
2026-05-04 19:25 18.43009 -69.66924 64 ft 35 kts 187°
2026-05-04 19:25 18.42938 -69.67022 69 ft 3 kts 276°
2026-05-04 19:26 18.42940 -69.67038 68 ft 0 kts 274°
2026-05-04 19:26 18.42940 -69.67051 69 ft 7 kts 274°
2026-05-04 19:26 18.42949 -69.67147 68 ft 17 kts 274°
2026-05-04 19:26 18.42957 -69.67251 59 ft 10 kts 275°
2026-05-04 19:27 18.42943 -69.67326 64 ft 11 kts 221°
2026-05-04 19:27 18.42865 -69.67342 63 ft 12 kts 197°
2026-05-04 19:27 18.42806 -69.67405 66 ft 13 kts 241°
2026-05-04 19:27 18.42782 -69.67489 65 ft 8 kts 266°
2026-05-04 19:28 18.42782 -69.67494 63 ft 0 kts 274°
2026-05-04 19:28 18.42779 -69.67479 62 ft 3 kts 322°
2026-05-04 19:28 18.42834 -69.67483 67 ft 5 kts 358°
2026-05-04 19:28 18.42835 -69.67483 67 ft 0 kts 358°